owner,sensor,date,latitude,longitude,sea_surface_height_above_sea_level,qcFlag 
TCOON,ioos:station:TCOON:031:1,2015-12-01T00:30:00Z,28.4073,-96.7122,0.551,1111122 
TCOON,ioos:station:TCOON:031:1,2015-12-01T01:24:00Z,28.4073,-96.7122,0.548,1111122 
TCOON,ioos:station:TCOON:031:1,2015-12-01T02:30:00Z,28.4073,-96.7122,0.586,1111122 
TCOON,ioos:station:TCOON:031:1,2015-12-01T03:18:00Z,28.4073,-96.7122,0.598,1111122 
TCOON,ioos:station:TCOON:031:1,2015-12-01T04:24:00Z,28.4073,-96.7122,0.589,1111122 
TCOON,ioos:station:TCOON:031:1,2015-12-01T05:30:00Z,28.4073,-96.7122,0.575,1111122 
TCOON,ioos:station:TCOON:031:1,2015-12-01T06:24:00Z,28.4073,-96.7122,0.578,1111122 
TCOON,ioos:station:TCOON:031:1,2015-12-01T07:24:00Z,28.4073,-96.7122,0.585,1111122 
TCOON,ioos:station:TCOON:031:1,2015-12-01T08:30:00Z,28.4073,-96.7122,0.574,1111122 
TCOON,ioos:station:TCOON:031:1,2015-12-01T09:24:00Z,28.4073,-96.7122,0.582,1111122 
TCOON,ioos:station:TCOON:031:1,2015-12-01T10:30:00Z,28.4073,-96.7122,0.582,1111122 
TCOON,ioos:station:TCOON:031:1,2015-12-01T11:24:00Z,28.4073,-96.7122,0.588,1111122 
TCOON,ioos:station:TCOON:031:1,2015-12-01T12:24:00Z,28.4073,-96.7122,0.587,1111122 
TCOON,ioos:station:TCOON:031:1,2015-12-01T13:30:00Z,28.4073,-96.7122,0.609,1111122 
TCOON,ioos:station:TCOON:031:1,2015-12-01T14:24:00Z,28.4073,-96.7122,0.594,1111122 
TCOON,ioos:station:TCOON:031:1,2015-12-01T15:30:00Z,28.4073,-96.7122,0.605,1111122 
TCOON,ioos:station:TCOON:031:1,2015-12-01T16:36:00Z,28.4073,-96.7122,0.616,1111122 
TCOON,ioos:station:TCOON:031:1,2015-12-01T17:24:00Z,28.4073,-96.7122,0.616,1111122 
TCOON,ioos:station:TCOON:031:1,2015-12-01T18:36:00Z,28.4073,-96.7122,0.589,1111122 
TCOON,ioos:station:TCOON:031:1,2015-12-01T19:30:00Z,28.4073,-96.7122,0.601,1111122 
TCOON,ioos:station:TCOON:031:1,2015-12-01T20:30:00Z,28.4073,-96.7122,0.618,1111122 
TCOON,ioos:station:TCOON:031:1,2015-12-01T21:30:00Z,28.4073,-96.7122,0.593,1111122 
TCOON,ioos:station:TCOON:031:1,2015-12-01T22:24:00Z,28.4073,-96.7122,0.58,1111122 
TCOON,ioos:station:TCOON:031:1,2015-12-01T23:30:00Z,28.4073,-96.7122,0.559,1111122 
TCOON,ioos:station:TCOON:031:1,2015-12-02T00:30:00Z,28.4073,-96.7122,0.555,1111122 
TCOON,ioos:station:TCOON:031:1,2015-12-02T01:30:00Z,28.4073,-96.7122,0.557,1111122 
TCOON,ioos:station:TCOON:031:1,2015-12-02T02:30:00Z,28.4073,-96.7122,0.545,1111122 
TCOON,ioos:station:TCOON:031:1,2015-12-02T03:24:00Z,28.4073,-96.7122,0.537,1111122 
TCOON,ioos:station:TCOON:031:1,2015-12-02T04:18:00Z,28.4073,-96.7122,0.524,1111122 
TCOON,ioos:station:TCOON:031:1,2015-12-02T05:24:00Z,28.4073,-96.7122,0.514,1111122 
TCOON,ioos:station:TCOON:031:1,2015-12-02T06:36:00Z,28.4073,-96.7122,0.573,1111122 
TCOON,ioos:station:TCOON:031:1,2015-12-02T07:24:00Z,28.4073,-96.7122,0.575,1111122 
TCOON,ioos:station:TCOON:031:1,2015-12-02T08:30:00Z,28.4073,-96.7122,0.557,1111122 
TCOON,ioos:station:TCOON:031:1,2015-12-02T09:24:00Z,28.4073,-96.7122,0.542,1111122 
TCOON,ioos:station:TCOON:031:1,2015-12-02T10:30:00Z,28.4073,-96.7122,0.547,1111122 
TCOON,ioos:station:TCOON:031:1,2015-12-02T11:24:00Z,28.4073,-96.7122,0.577,1111122 
TCOON,ioos:station:TCOON:031:1,2015-12-02T12:30:00Z,28.4073,-96.7122,0.566,1111122 
TCOON,ioos:station:TCOON:031:1,2015-12-02T13:30:00Z,28.4073,-96.7122,0.551,1111122 
TCOON,ioos:station:TCOON:031:1,2015-12-02T14:24:00Z,28.4073,-96.7122,0.571,1111122 
TCOON,ioos:station:TCOON:031:1,2015-12-02T15:30:00Z,28.4073,-96.7122,0.586,1111122 
TCOON,ioos:station:TCOON:031:1,2015-12-02T16:30:00Z,28.4073,-96.7122,0.582,1111122 
TCOON,ioos:station:TCOON:031:1,2015-12-02T17:30:00Z,28.4073,-96.7122,0.561,1111122 
TCOON,ioos:station:TCOON:031:1,2015-12-02T18:36:00Z,28.4073,-96.7122,0.584,1111122 
TCOON,ioos:station:TCOON:031:1,2015-12-02T19:30:00Z,28.4073,-96.7122,0.576,1111122 
TCOON,ioos:station:TCOON:031:1,2015-12-02T20:24:00Z,28.4073,-96.7122,0.569,1111122 
TCOON,ioos:station:TCOON:031:1,2015-12-02T21:30:00Z,28.4073,-96.7122,0.587,1111122 
TCOON,ioos:station:TCOON:031:1,2015-12-02T22:30:00Z,28.4073,-96.7122,0.594,1111122 
TCOON,ioos:station:TCOON:031:1,2015-12-02T23:24:00Z,28.4073,-96.7122,0.58,1111122 
TCOON,ioos:station:TCOON:031:1,2015-12-03T00:30:00Z,28.4073,-96.7122,0.558,1111122 
TCOON,ioos:station:TCOON:031:1,2015-12-03T01:24:00Z,28.4073,-96.7122,0.552,1111122 
TCOON,ioos:station:TCOON:031:1,2015-12-03T02:24:00Z,28.4073,-96.7122,0.57,1111122 
TCOON,ioos:station:TCOON:031:1,2015-12-03T03:18:00Z,28.4073,-96.7122,0.561,1111122 
TCOON,ioos:station:TCOON:031:1,2015-12-03T04:36:00Z,28.4073,-96.7122,0.554,1111122 
TCOON,ioos:station:TCOON:031:1,2015-12-03T05:24:00Z,28.4073,-96.7122,0.556,1111122 
TCOON,ioos:station:TCOON:031:1,2015-12-03T06:24:00Z,28.4073,-96.7122,0.554,1111122 
TCOON,ioos:station:TCOON:031:1,2015-12-03T07:36:00Z,28.4073,-96.7122,0.54,1111122 
TCOON,ioos:station:TCOON:031:1,2015-12-03T08:30:00Z,28.4073,-96.7122,0.544,1111122 
TCOON,ioos:station:TCOON:031:1,2015-12-03T09:30:00Z,28.4073,-96.7122,0.54,1111122 
TCOON,ioos:station:TCOON:031:1,2015-12-03T10:30:00Z,28.4073,-96.7122,0.543,1111122 
TCOON,ioos:station:TCOON:031:1,2015-12-03T11:48:00Z,28.4073,-96.7122,0.54,1111122 
TCOON,ioos:station:TCOON:031:1,2015-12-03T12:30:00Z,28.4073,-96.7122,0.536,1111122 
TCOON,ioos:station:TCOON:031:1,2015-12-03T13:24:00Z,28.4073,-96.7122,0.537,1111122 
TCOON,ioos:station:TCOON:031:1,2015-12-03T14:24:00Z,28.4073,-96.7122,0.546,1111122 
TCOON,ioos:station:TCOON:031:1,2015-12-03T15:36:00Z,28.4073,-96.7122,0.565,1111122 
TCOON,ioos:station:TCOON:031:1,2015-12-03T16:24:00Z,28.4073,-96.7122,0.575,1111122 
TCOON,ioos:station:TCOON:031:1,2015-12-03T17:30:00Z,28.4073,-96.7122,0.58,1111122 
TCOON,ioos:station:TCOON:031:1,2015-12-03T18:30:00Z,28.4073,-96.7122,0.559,1111122 
TCOON,ioos:station:TCOON:031:1,2015-12-03T19:24:00Z,28.4073,-96.7122,0.559,1111122 
TCOON,ioos:station:TCOON:031:1,2015-12-03T20:30:00Z,28.4073,-96.7122,0.561,1111122 
TCOON,ioos:station:TCOON:031:1,2015-12-03T21:30:00Z,28.4073,-96.7122,0.546,1111122 
TCOON,ioos:station:TCOON:031:1,2015-12-03T22:30:00Z,28.4073,-96.7122,0.552,1111122 
TCOON,ioos:station:TCOON:031:1,2015-12-03T23:24:00Z,28.4073,-96.7122,0.56,1111122 
TCOON,ioos:station:TCOON:031:1,2015-12-04T00:24:00Z,28.4073,-96.7122,0.549,1111122 
TCOON,ioos:station:TCOON:031:1,2015-12-04T01:24:00Z,28.4073,-96.7122,0.527,1111122 
TCOON,ioos:station:TCOON:031:1,2015-12-04T02:36:00Z,28.4073,-96.7122,0.529,1111122 
TCOON,ioos:station:TCOON:031:1,2015-12-04T03:24:00Z,28.4073,-96.7122,0.536,1111122 
TCOON,ioos:station:TCOON:031:1,2015-12-04T04:24:00Z,28.4073,-96.7122,0.543,1111122 
TCOON,ioos:station:TCOON:031:1,2015-12-04T05:30:00Z,28.4073,-96.7122,0.543,1111122 
TCOON,ioos:station:TCOON:031:1,2015-12-04T06:30:00Z,28.4073,-96.7122,0.545,1111122 
TCOON,ioos:station:TCOON:031:1,2015-12-04T07:30:00Z,28.4073,-96.7122,0.554,1111122 
TCOON,ioos:station:TCOON:031:1,2015-12-04T08:30:00Z,28.4073,-96.7122,0.559,1111122 
TCOON,ioos:station:TCOON:031:1,2015-12-04T09:30:00Z,28.4073,-96.7122,0.559,1111122 
TCOON,ioos:station:TCOON:031:1,2015-12-04T10:30:00Z,28.4073,-96.7122,0.566,1111122 
TCOON,ioos:station:TCOON:031:1,2015-12-04T11:30:00Z,28.4073,-96.7122,0.569,1111122 
TCOON,ioos:station:TCOON:031:1,2015-12-04T12:30:00Z,28.4073,-96.7122,0.568,1111122 
TCOON,ioos:station:TCOON:031:1,2015-12-04T13:30:00Z,28.4073,-96.7122,0.57,1111122 
TCOON,ioos:station:TCOON:031:1,2015-12-04T14:30:00Z,28.4073,-96.7122,0.573,1111122 
TCOON,ioos:station:TCOON:031:1,2015-12-04T15:30:00Z,28.4073,-96.7122,0.555,1111122 
TCOON,ioos:station:TCOON:031:1,2015-12-04T16:30:00Z,28.4073,-96.7122,0.558,1111122 
TCOON,ioos:station:TCOON:031:1,2015-12-04T17:30:00Z,28.4073,-96.7122,0.578,1111122 
TCOON,ioos:station:TCOON:031:1,2015-12-04T18:18:00Z,28.4073,-96.7122,0.593,1111122 
TCOON,ioos:station:TCOON:031:1,2015-12-05T00:48:00Z,28.4073,-96.7122,0.571,1111122 
TCOON,ioos:station:TCOON:031:1,2015-12-05T06:42:00Z,28.4073,-96.7122,0.581,1111122 
TCOON,ioos:station:TCOON:031:1,2015-12-05T12:48:00Z,28.4073,-96.7122,0.584,1111122 
TCOON,ioos:station:TCOON:031:1,2015-12-05T18:48:00Z,28.4073,-96.7122,0.603,1111122 
TCOON,ioos:station:TCOON:031:1,2015-12-06T00:48:00Z,28.4073,-96.7122,0.567,1111122 
TCOON,ioos:station:TCOON:031:1,2015-12-06T06:42:00Z,28.4073,-96.7122,0.574,1111122 
TCOON,ioos:station:TCOON:031:1,2015-12-06T11:18:00Z,28.4073,-96.7122,0.583,1111122 
TCOON,ioos:station:TCOON:031:1,2015-12-06T16:42:00Z,28.4073,-96.7122,0.575,1111122 
TCOON,ioos:station:TCOON:031:1,2015-12-06T17:18:00Z,28.4073,-96.7122,0.565,1111122 
TCOON,ioos:station:TCOON:031:1,2015-12-06T18:18:00Z,28.4073,-96.7122,0.567,1111122 
TCOON,ioos:station:TCOON:031:1,2015-12-06T19:18:00Z,28.4073,-96.7122,0.565,1111122 
TCOON,ioos:station:TCOON:031:1,2015-12-06T20:18:00Z,28.4073,-96.7122,0.551,1111122 
TCOON,ioos:station:TCOON:031:1,2015-12-06T21:18:00Z,28.4073,-96.7122,0.543,1111122 
TCOON,ioos:station:TCOON:031:1,2015-12-06T22:18:00Z,28.4073,-96.7122,0.542,1111122 
TCOON,ioos:station:TCOON:031:1,2015-12-06T23:18:00Z,28.4073,-96.7122,0.536,1111122 
TCOON,ioos:station:TCOON:031:1,2015-12-07T00:18:00Z,28.4073,-96.7122,0.532,1111122 
TCOON,ioos:station:TCOON:031:1,2015-12-07T01:18:00Z,28.4073,-96.7122,0.544,1111122 
TCOON,ioos:station:TCOON:031:1,2015-12-07T02:24:00Z,28.4073,-96.7122,0.542,1111122 
TCOON,ioos:station:TCOON:031:1,2015-12-07T03:18:00Z,28.4073,-96.7122,0.549,1111122 
TCOON,ioos:station:TCOON:031:1,2015-12-07T05:06:00Z,28.4073,-96.7122,0.542,1111122 
TCOON,ioos:station:TCOON:031:1,2015-12-07T06:18:00Z,28.4073,-96.7122,0.549,1111122 
TCOON,ioos:station:TCOON:031:1,2015-12-07T07:18:00Z,28.4073,-96.7122,0.54,1111122 
TCOON,ioos:station:TCOON:031:1,2015-12-07T08:18:00Z,28.4073,-96.7122,0.547,1111122 
TCOON,ioos:station:TCOON:031:1,2015-12-07T09:18:00Z,28.4073,-96.7122,0.544,1111122 
TCOON,ioos:station:TCOON:031:1,2015-12-07T10:18:00Z,28.4073,-96.7122,0.536,1111122 
TCOON,ioos:station:TCOON:031:1,2015-12-07T11:30:00Z,28.4073,-96.7122,0.518,1111122 
TCOON,ioos:station:TCOON:031:1,2015-12-07T12:18:00Z,28.4073,-96.7122,0.513,1111122 
TCOON,ioos:station:TCOON:031:1,2015-12-07T13:18:00Z,28.4073,-96.7122,0.511,1111122 
TCOON,ioos:station:TCOON:031:1,2015-12-07T14:18:00Z,28.4073,-96.7122,0.501,1111122 
TCOON,ioos:station:TCOON:031:1,2015-12-07T15:18:00Z,28.4073,-96.7122,0.49,1111122 
TCOON,ioos:station:TCOON:031:1,2015-12-07T16:18:00Z,28.4073,-96.7122,0.505,1111122 
TCOON,ioos:station:TCOON:031:1,2015-12-07T17:18:00Z,28.4073,-96.7122,0.522,1111122 
TCOON,ioos:station:TCOON:031:1,2015-12-07T18:18:00Z,28.4073,-96.7122,0.512,1111122 
TCOON,ioos:station:TCOON:031:1,2015-12-07T19:18:00Z,28.4073,-96.7122,0.502,1111122 
TCOON,ioos:station:TCOON:031:1,2015-12-07T21:18:00Z,28.4073,-96.7122,0.5,1111122 
TCOON,ioos:station:TCOON:031:1,2015-12-07T22:18:00Z,28.4073,-96.7122,0.501,1111122 
TCOON,ioos:station:TCOON:031:1,2015-12-07T23:18:00Z,28.4073,-96.7122,0.504,1111122 
TCOON,ioos:station:TCOON:031:1,2015-12-08T00:18:00Z,28.4073,-96.7122,0.512,1111122 
TCOON,ioos:station:TCOON:031:1,2015-12-08T01:42:00Z,28.4073,-96.7122,0.514,1111122 
TCOON,ioos:station:TCOON:031:1,2015-12-08T02:18:00Z,28.4073,-96.7122,0.514,1111122 
TCOON,ioos:station:TCOON:031:1,2015-12-08T03:18:00Z,28.4073,-96.7122,0.528,1111122 
TCOON,ioos:station:TCOON:031:1,2015-12-08T04:18:00Z,28.4073,-96.7122,0.533,1111122 
TCOON,ioos:station:TCOON:031:1,2015-12-08T05:18:00Z,28.4073,-96.7122,0.545,1111122 
TCOON,ioos:station:TCOON:031:1,2015-12-08T06:18:00Z,28.4073,-96.7122,0.541,1111122 
TCOON,ioos:station:TCOON:031:1,2015-12-08T07:12:00Z,28.4073,-96.7122,0.551,1111122 
TCOON,ioos:station:TCOON:031:1,2015-12-08T08:18:00Z,28.4073,-96.7122,0.558,1111122 
TCOON,ioos:station:TCOON:031:1,2015-12-08T09:24:00Z,28.4073,-96.7122,0.556,1111122 
TCOON,ioos:station:TCOON:031:1,2015-12-08T10:18:00Z,28.4073,-96.7122,0.559,1111122 
TCOON,ioos:station:TCOON:031:1,2015-12-08T11:18:00Z,28.4073,-96.7122,0.559,1111122 
TCOON,ioos:station:TCOON:031:1,2015-12-08T12:18:00Z,28.4073,-96.7122,0.538,1111122 
TCOON,ioos:station:TCOON:031:1,2015-12-08T13:18:00Z,28.4073,-96.7122,0.535,1111122 
TCOON,ioos:station:TCOON:031:1,2015-12-08T14:18:00Z,28.4073,-96.7122,0.536,1111122 
TCOON,ioos:station:TCOON:031:1,2015-12-08T15:18:00Z,28.4073,-96.7122,0.534,1111122 
TCOON,ioos:station:TCOON:031:1,2015-12-08T16:18:00Z,28.4073,-96.7122,0.525,1111122 
TCOON,ioos:station:TCOON:031:1,2015-12-08T17:18:00Z,28.4073,-96.7122,0.525,1111122 
TCOON,ioos:station:TCOON:031:1,2015-12-08T18:24:00Z,28.4073,-96.7122,0.512,1111122 
TCOON,ioos:station:TCOON:031:1,2015-12-08T19:18:00Z,28.4073,-96.7122,0.499,1111122 
TCOON,ioos:station:TCOON:031:1,2015-12-08T20:18:00Z,28.4073,-96.7122,0.498,1111122 
TCOON,ioos:station:TCOON:031:1,2015-12-08T21:18:00Z,28.4073,-96.7122,0.49,1111122 
TCOON,ioos:station:TCOON:031:1,2015-12-08T22:18:00Z,28.4073,-96.7122,0.486,1111122 
TCOON,ioos:station:TCOON:031:1,2015-12-08T23:18:00Z,28.4073,-96.7122,0.485,1111122 
TCOON,ioos:station:TCOON:031:1,2015-12-09T00:18:00Z,28.4073,-96.7122,0.49,1111122 
TCOON,ioos:station:TCOON:031:1,2015-12-09T01:18:00Z,28.4073,-96.7122,0.496,1111122 
TCOON,ioos:station:TCOON:031:1,2015-12-09T02:18:00Z,28.4073,-96.7122,0.507,1111122 
TCOON,ioos:station:TCOON:031:1,2015-12-09T03:18:00Z,28.4073,-96.7122,0.511,1111122 
TCOON,ioos:station:TCOON:031:1,2015-12-09T04:18:00Z,28.4073,-96.7122,0.512,1111122 
TCOON,ioos:station:TCOON:031:1,2015-12-09T05:18:00Z,28.4073,-96.7122,0.518,1111122 
TCOON,ioos:station:TCOON:031:1,2015-12-09T06:18:00Z,28.4073,-96.7122,0.523,1111122 
TCOON,ioos:station:TCOON:031:1,2015-12-09T07:18:00Z,28.4073,-96.7122,0.531,1111122 
TCOON,ioos:station:TCOON:031:1,2015-12-09T08:18:00Z,28.4073,-96.7122,0.548,1111122 
TCOON,ioos:station:TCOON:031:1,2015-12-09T09:24:00Z,28.4073,-96.7122,0.548,1111122 
TCOON,ioos:station:TCOON:031:1,2015-12-09T10:18:00Z,28.4073,-96.7122,0.55,1111122 
TCOON,ioos:station:TCOON:031:1,2015-12-09T11:24:00Z,28.4073,-96.7122,0.55,1111122 
TCOON,ioos:station:TCOON:031:1,2015-12-09T12:18:00Z,28.4073,-96.7122,0.545,1111122 
TCOON,ioos:station:TCOON:031:1,2015-12-09T13:18:00Z,28.4073,-96.7122,0.543,1111122 
TCOON,ioos:station:TCOON:031:1,2015-12-09T14:18:00Z,28.4073,-96.7122,0.545,1111122 
TCOON,ioos:station:TCOON:031:1,2015-12-09T15:18:00Z,28.4073,-96.7122,0.533,1111122 
TCOON,ioos:station:TCOON:031:1,2015-12-09T16:18:00Z,28.4073,-96.7122,0.526,1111122 
TCOON,ioos:station:TCOON:031:1,2015-12-09T17:18:00Z,28.4073,-96.7122,0.52,1111122 
TCOON,ioos:station:TCOON:031:1,2015-12-09T18:18:00Z,28.4073,-96.7122,0.504,1111122 
TCOON,ioos:station:TCOON:031:1,2015-12-09T19:18:00Z,28.4073,-96.7122,0.503,1111122 
TCOON,ioos:station:TCOON:031:1,2015-12-09T20:18:00Z,28.4073,-96.7122,0.5,1111122 
TCOON,ioos:station:TCOON:031:1,2015-12-09T21:18:00Z,28.4073,-96.7122,0.492,1111122 
TCOON,ioos:station:TCOON:031:1,2015-12-09T22:18:00Z,28.4073,-96.7122,0.488,1111122 
TCOON,ioos:station:TCOON:031:1,2015-12-09T23:18:00Z,28.4073,-96.7122,0.497,1111122 
TCOON,ioos:station:TCOON:031:1,2015-12-10T00:18:00Z,28.4073,-96.7122,0.489,1111122 
TCOON,ioos:station:TCOON:031:1,2015-12-10T01:18:00Z,28.4073,-96.7122,0.486,1111122 
TCOON,ioos:station:TCOON:031:1,2015-12-10T02:18:00Z,28.4073,-96.7122,0.506,1111122 
TCOON,ioos:station:TCOON:031:1,2015-12-10T03:18:00Z,28.4073,-96.7122,0.506,1111122 
TCOON,ioos:station:TCOON:031:1,2015-12-10T04:18:00Z,28.4073,-96.7122,0.504,1111122 
TCOON,ioos:station:TCOON:031:1,2015-12-10T05:18:00Z,28.4073,-96.7122,0.505,1111122 
TCOON,ioos:station:TCOON:031:1,2015-12-10T06:18:00Z,28.4073,-96.7122,0.525,1111122 
TCOON,ioos:station:TCOON:031:1,2015-12-10T07:18:00Z,28.4073,-96.7122,0.548,1111122 
TCOON,ioos:station:TCOON:031:1,2015-12-10T08:18:00Z,28.4073,-96.7122,0.539,1111122 
TCOON,ioos:station:TCOON:031:1,2015-12-10T09:24:00Z,28.4073,-96.7122,0.547,1111122 
TCOON,ioos:station:TCOON:031:1,2015-12-10T10:18:00Z,28.4073,-96.7122,0.546,1111122 
TCOON,ioos:station:TCOON:031:1,2015-12-10T11:18:00Z,28.4073,-96.7122,0.543,1111122 
TCOON,ioos:station:TCOON:031:1,2015-12-10T12:18:00Z,28.4073,-96.7122,0.535,1111122 
TCOON,ioos:station:TCOON:031:1,2015-12-10T13:18:00Z,28.4073,-96.7122,0.528,1111122 
TCOON,ioos:station:TCOON:031:1,2015-12-10T14:18:00Z,28.4073,-96.7122,0.54,1111122 
TCOON,ioos:station:TCOON:031:1,2015-12-10T15:18:00Z,28.4073,-96.7122,0.56,1111122 
TCOON,ioos:station:TCOON:031:1,2015-12-10T16:18:00Z,28.4073,-96.7122,0.553,1111122 
TCOON,ioos:station:TCOON:031:1,2015-12-10T17:18:00Z,28.4073,-96.7122,0.523,1111122 
TCOON,ioos:station:TCOON:031:1,2015-12-10T18:18:00Z,28.4073,-96.7122,0.52,1111122 
TCOON,ioos:station:TCOON:031:1,2015-12-10T19:18:00Z,28.4073,-96.7122,0.505,1111122 
TCOON,ioos:station:TCOON:031:1,2015-12-10T20:18:00Z,28.4073,-96.7122,0.492,1111122 
TCOON,ioos:station:TCOON:031:1,2015-12-10T21:18:00Z,28.4073,-96.7122,0.489,1111122 
TCOON,ioos:station:TCOON:031:1,2015-12-10T22:18:00Z,28.4073,-96.7122,0.499,1111122 
TCOON,ioos:station:TCOON:031:1,2015-12-10T23:18:00Z,28.4073,-96.7122,0.498,1111122 
TCOON,ioos:station:TCOON:031:1,2015-12-11T00:18:00Z,28.4073,-96.7122,0.485,1111122 
TCOON,ioos:station:TCOON:031:1,2015-12-11T01:18:00Z,28.4073,-96.7122,0.469,1111122 
TCOON,ioos:station:TCOON:031:1,2015-12-11T02:18:00Z,28.4073,-96.7122,0.501,1111122 
TCOON,ioos:station:TCOON:031:1,2015-12-11T03:18:00Z,28.4073,-96.7122,0.529,1111122 
TCOON,ioos:station:TCOON:031:1,2015-12-11T04:18:00Z,28.4073,-96.7122,0.576,1111122 
TCOON,ioos:station:TCOON:031:1,2015-12-11T05:18:00Z,28.4073,-96.7122,0.587,1111122 
TCOON,ioos:station:TCOON:031:1,2015-12-11T06:18:00Z,28.4073,-96.7122,0.553,1111122 
TCOON,ioos:station:TCOON:031:1,2015-12-11T07:18:00Z,28.4073,-96.7122,0.532,1111122 
TCOON,ioos:station:TCOON:031:1,2015-12-11T08:18:00Z,28.4073,-96.7122,0.545,1111122 
TCOON,ioos:station:TCOON:031:1,2015-12-11T09:24:00Z,28.4073,-96.7122,0.582,1111122 
TCOON,ioos:station:TCOON:031:1,2015-12-11T10:18:00Z,28.4073,-96.7122,0.578,1111122 
TCOON,ioos:station:TCOON:031:1,2015-12-11T11:18:00Z,28.4073,-96.7122,0.56,1111122 
TCOON,ioos:station:TCOON:031:1,2015-12-11T12:18:00Z,28.4073,-96.7122,0.55,1111122 
TCOON,ioos:station:TCOON:031:1,2015-12-11T13:18:00Z,28.4073,-96.7122,0.574,1111122 
TCOON,ioos:station:TCOON:031:1,2015-12-11T14:18:00Z,28.4073,-96.7122,0.556,1111122 
TCOON,ioos:station:TCOON:031:1,2015-12-11T15:18:00Z,28.4073,-96.7122,0.536,1111122 
TCOON,ioos:station:TCOON:031:1,2015-12-11T16:18:00Z,28.4073,-96.7122,0.536,1111122 
TCOON,ioos:station:TCOON:031:1,2015-12-11T17:18:00Z,28.4073,-96.7122,0.543,1111122 
TCOON,ioos:station:TCOON:031:1,2015-12-11T18:24:00Z,28.4073,-96.7122,0.562,1111122 
TCOON,ioos:station:TCOON:031:1,2015-12-11T19:18:00Z,28.4073,-96.7122,0.561,1111122 
TCOON,ioos:station:TCOON:031:1,2015-12-11T20:18:00Z,28.4073,-96.7122,0.552,1111122 
TCOON,ioos:station:TCOON:031:1,2015-12-11T21:18:00Z,28.4073,-96.7122,0.537,1111122 
TCOON,ioos:station:TCOON:031:1,2015-12-11T22:24:00Z,28.4073,-96.7122,0.519,1111122 
TCOON,ioos:station:TCOON:031:1,2015-12-11T23:18:00Z,28.4073,-96.7122,0.515,1111122 
TCOON,ioos:station:TCOON:031:1,2015-12-12T00:18:00Z,28.4073,-96.7122,0.505,1111122 
TCOON,ioos:station:TCOON:031:1,2015-12-12T01:18:00Z,28.4073,-96.7122,0.509,1111122 
TCOON,ioos:station:TCOON:031:1,2015-12-12T02:18:00Z,28.4073,-96.7122,0.542,1111122 
TCOON,ioos:station:TCOON:031:1,2015-12-12T03:18:00Z,28.4073,-96.7122,0.55,1111122 
TCOON,ioos:station:TCOON:031:1,2015-12-12T04:18:00Z,28.4073,-96.7122,0.566,1111122 
TCOON,ioos:station:TCOON:031:1,2015-12-12T05:18:00Z,28.4073,-96.7122,0.555,1111122 
TCOON,ioos:station:TCOON:031:1,2015-12-12T06:18:00Z,28.4073,-96.7122,0.569,1111122 
TCOON,ioos:station:TCOON:031:1,2015-12-12T07:18:00Z,28.4073,-96.7122,0.573,1111122 
TCOON,ioos:station:TCOON:031:1,2015-12-12T08:18:00Z,28.4073,-96.7122,0.584,1111122 
TCOON,ioos:station:TCOON:031:1,2015-12-12T09:18:00Z,28.4073,-96.7122,0.589,1111122 
TCOON,ioos:station:TCOON:031:1,2015-12-12T10:18:00Z,28.4073,-96.7122,0.618,1111122 
TCOON,ioos:station:TCOON:031:1,2015-12-12T11:18:00Z,28.4073,-96.7122,0.648,1111122 
TCOON,ioos:station:TCOON:031:1,2015-12-12T12:18:00Z,28.4073,-96.7122,0.657,1111122 
TCOON,ioos:station:TCOON:031:1,2015-12-12T13:18:00Z,28.4073,-96.7122,0.649,1111122 
TCOON,ioos:station:TCOON:031:1,2015-12-12T14:18:00Z,28.4073,-96.7122,0.639,1111122 
TCOON,ioos:station:TCOON:031:1,2015-12-12T15:18:00Z,28.4073,-96.7122,0.656,1111122 
TCOON,ioos:station:TCOON:031:1,2015-12-12T16:18:00Z,28.4073,-96.7122,0.64,1111122 
TCOON,ioos:station:TCOON:031:1,2015-12-12T17:18:00Z,28.4073,-96.7122,0.645,1111122 
TCOON,ioos:station:TCOON:031:1,2015-12-12T18:18:00Z,28.4073,-96.7122,0.629,1111122 
TCOON,ioos:station:TCOON:031:1,2015-12-12T19:18:00Z,28.4073,-96.7122,0.639,1111122 
TCOON,ioos:station:TCOON:031:1,2015-12-12T20:18:00Z,28.4073,-96.7122,0.627,1111122 
TCOON,ioos:station:TCOON:031:1,2015-12-12T21:18:00Z,28.4073,-96.7122,0.637,1111122 
TCOON,ioos:station:TCOON:031:1,2015-12-12T22:18:00Z,28.4073,-96.7122,0.643,1111122 
TCOON,ioos:station:TCOON:031:1,2015-12-12T23:18:00Z,28.4073,-96.7122,0.597,1111122 
TCOON,ioos:station:TCOON:031:1,2015-12-13T00:18:00Z,28.4073,-96.7122,0.633,1111122 
TCOON,ioos:station:TCOON:031:1,2015-12-13T01:18:00Z,28.4073,-96.7122,0.614,1111122 
TCOON,ioos:station:TCOON:031:1,2015-12-13T02:18:00Z,28.4073,-96.7122,0.653,1111122 
TCOON,ioos:station:TCOON:031:1,2015-12-13T03:18:00Z,28.4073,-96.7122,0.682,1111122 
TCOON,ioos:station:TCOON:031:1,2015-12-13T04:18:00Z,28.4073,-96.7122,0.698,1111122 
TCOON,ioos:station:TCOON:031:1,2015-12-13T05:18:00Z,28.4073,-96.7122,0.707,1111122 
TCOON,ioos:station:TCOON:031:1,2015-12-13T06:18:00Z,28.4073,-96.7122,0.731,1111122 
TCOON,ioos:station:TCOON:031:1,2015-12-13T07:18:00Z,28.4073,-96.7122,0.793,1111122 
TCOON,ioos:station:TCOON:031:1,2015-12-13T08:18:00Z,28.4073,-96.7122,0.804,1111122 
TCOON,ioos:station:TCOON:031:1,2015-12-13T09:18:00Z,28.4073,-96.7122,0.763,1111122 
TCOON,ioos:station:TCOON:031:1,2015-12-13T10:18:00Z,28.4073,-96.7122,0.796,1111122 
TCOON,ioos:station:TCOON:031:1,2015-12-13T11:18:00Z,28.4073,-96.7122,0.825,1111122 
TCOON,ioos:station:TCOON:031:1,2015-12-13T12:18:00Z,28.4073,-96.7122,0.899,1111122 
TCOON,ioos:station:TCOON:031:1,2015-12-13T13:18:00Z,28.4073,-96.7122,0.765,1111122 
TCOON,ioos:station:TCOON:031:1,2015-12-13T14:18:00Z,28.4073,-96.7122,0.48,1111122 
TCOON,ioos:station:TCOON:031:1,2015-12-13T15:18:00Z,28.4073,-96.7122,0.477,1111122 
TCOON,ioos:station:TCOON:031:1,2015-12-13T16:18:00Z,28.4073,-96.7122,0.54,1111122 
TCOON,ioos:station:TCOON:031:1,2015-12-13T17:18:00Z,28.4073,-96.7122,0.676,1111122 
TCOON,ioos:station:TCOON:031:1,2015-12-13T18:18:00Z,28.4073,-96.7122,0.695,1111122 
TCOON,ioos:station:TCOON:031:1,2015-12-13T19:18:00Z,28.4073,-96.7122,0.707,1111122 
TCOON,ioos:station:TCOON:031:1,2015-12-13T20:18:00Z,28.4073,-96.7122,0.717,1111122 
TCOON,ioos:station:TCOON:031:1,2015-12-13T21:18:00Z,28.4073,-96.7122,0.732,1111122 
TCOON,ioos:station:TCOON:031:1,2015-12-13T22:18:00Z,28.4073,-96.7122,0.732,1111122 
TCOON,ioos:station:TCOON:031:1,2015-12-13T23:18:00Z,28.4073,-96.7122,0.721,1111122 
TCOON,ioos:station:TCOON:031:1,2015-12-14T00:18:00Z,28.4073,-96.7122,0.716,1111122 
TCOON,ioos:station:TCOON:031:1,2015-12-14T01:18:00Z,28.4073,-96.7122,0.728,1111122 
TCOON,ioos:station:TCOON:031:1,2015-12-14T02:24:00Z,28.4073,-96.7122,0.73,1111122 
TCOON,ioos:station:TCOON:031:1,2015-12-14T03:18:00Z,28.4073,-96.7122,0.729,1111122 
TCOON,ioos:station:TCOON:031:1,2015-12-14T04:18:00Z,28.4073,-96.7122,0.74,1111122 
TCOON,ioos:station:TCOON:031:1,2015-12-14T05:18:00Z,28.4073,-96.7122,0.735,1111122 
TCOON,ioos:station:TCOON:031:1,2015-12-14T06:24:00Z,28.4073,-96.7122,0.741,1111122 
TCOON,ioos:station:TCOON:031:1,2015-12-14T07:18:00Z,28.4073,-96.7122,0.754,1111122 
TCOON,ioos:station:TCOON:031:1,2015-12-14T08:18:00Z,28.4073,-96.7122,0.765,1111122 
TCOON,ioos:station:TCOON:031:1,2015-12-14T09:24:00Z,28.4073,-96.7122,0.765,1111122 
TCOON,ioos:station:TCOON:031:1,2015-12-14T10:18:00Z,28.4073,-96.7122,0.76,1111122 
TCOON,ioos:station:TCOON:031:1,2015-12-14T11:18:00Z,28.4073,-96.7122,0.759,1111122 
TCOON,ioos:station:TCOON:031:1,2015-12-14T12:18:00Z,28.4073,-96.7122,0.764,1111122 